Probability
90 90 90 97 65 3 0 0 0 0 0 0 0 0 0 0 3 13 48 23 23 19 26 68 94 100 100 97 97 97 97 97 97 97 94 90 90 90 94 87 87 87 94 87 87 90 94 90 97
87 90 87 71 10 0 0 0 0 0 3 3 3 0 0 3 3 13 42 35 32 29 26 55 84 94 97 97 97 97 97 94 97 100 90 87 87 90 90 84 84 84 84 84 87 90 90 87 94
90 84 71 13 0 0 0 0 0 0 0 3 3 0 0 6 6 10 26 35 32 35 52 77 90 94 100 94 94 90 94 97 97 94 97 94 90 90 87 84 84 81 77 84 87 84 81 74 81
84 77 26 3 0 3 0 0 0 0 0 0 0 3 3 6 13 13 16 32 26 39 42 74 87 94 90 87 87 90 97 97 100 100 100 97 97 94 97 97 94 87 87 87 77 71 68 65 68
77 32 0 0 0 0 0 0 0 0 0 0 0 3 10 3 16 19 19 26 19 32 35 48 52 65 71 81 77 81 87 90 90 97 100 100 94 90 97 97 94 90 87 77 71 74 68 55 52
71 16 0 0 0 3 0 0 0 0 0 3 0 0 10 6 13 16 19 23 13 16 10 19 32 29 39 48 61 61 68 71 84 84 90 90 90 97 90 90 94 90 90 84 74 77 65 55 52
65 6 0 0 0 0 3 6 3 3 0 3 3 3 0 6 10 13 13 16 13 10 10 10 10 19 23 29 35 42 48 48 58 74 77 84 87 90 94 90 90 90 97 94 74 74 65 58 55
61 16 0 0 0 3 10 6 3 3 3 3 3 0 6 6 10 3 6 6 6 3 6 6 13 10 13 16 23 26 32 42 48 48 61 71 77 81 87 90 90 87 90 90 90 84 74 58 61
42 10 0 3 3 6 10 3 3 0 6 6 6 6 6 6 13 3 3 3 0 0 0 3 3 6 6 10 6 13 16 23 35 45 48 52 71 68 74 71 77 81 81 90 94 94 87 68 71
48 3 3 23 16 16 13 10 6 3 0 6 3 6 6 3 6 3 3 3 0 0 0 3 3 3 0 0 3 0 3 13 19 35 39 52 58 55 48 32 61 81 87 87 90 90 90 58 52
32 32 19 16 13 16 13 6 6 6 0 3 0 3 3 0 3 0 0 0 0 0 0 0 0 0 3 3 6 3 3 6 13 10 32 42 48 55 48 55 58 68 77 81 87 87 74 52 32
26 16 16 6 3 10 6 6 6 0 0 0 3 0 0 0 0 0 0 0 0 0 0 0 0 0 0 3 3 6 3 6 19 19 6 23 32 45 45 55 55 65 74 77 81 87 48 29 13
23 16 13 6 3 6 6 3 3 0 0 0 0 0 0 0 0 0 0 0 0 0 0 0 0 0 0 3 3 3 6 3 3 13 10 10 19 19 29 45 55 52 65 61 74 55 35 35 13
16 13 6 3 3 3 3 3 3 3 0 0 0 0 0 0 0 0 0 0 0 0 0 0 0 0 0 0 3 3 3 6 0 10 3 0 3 13 19 23 32 39 55 55 58 42 39 42 23
10 13 3 3 3 3 3 3 3 3 3 0 0 0 0 0 0 0 0 0 0 0 0 0 0 0 0 0 0 3 3 3 3 3 6 6 0 6 13 26 26 16 32 35 52 32 45 42 26
13 10 3 0 3 3 3 0 3 0 0 0 0 0 0 0 0 0 0 0 0 0 0 0 0 0 0 0 0 0 0 3 3 10 6 10 6 0 3 16 19 19 29 42 48 55 52 48 45
0 0 0 0 0 3 0 0 0 0 0 0 0 0 0 0 0 0 0 0 0 0 0 0 0 0 0 0 0 0 0 0 0 3 6 10 0 0 3 13 19 19 39 32 16 29 39 32 45
0 0 0 0 0 0 0 0 0 0 0 0 0 0 0 0 0 0 0 0 0 0 0 0 0 0 0 0 0 0 0 0 0 0 10 6 3 6 13 16 16 23 39 42 32 23 35 42 42
0 0 0 0 0 0 0 0 3 0 0 0 0 0 0 0 0 0 0 0 0 0 0 0 0 0 0 0 0 0 0 0 0 0 3 3 3 6 13 23 19 32 35 39 19 29 29 39 26
0 0 0 0 0 0 0 0 3 3 0 0 0 0 0 0 0 0 0 0 0 0 0 0 0 0 0 0 0 0 0 3 0 3 3 0 0 6 6 16 19 29 39 35 39 32 32 32 29
3 0 0 0 0 0 0 0 0 0 0 0 0 0 0 0 0 0 0 0 0 0 0 0 0 0 0 0 0 0 0 0 0 3 3 6 3 6 10 10 10 16 26 35 35 35 32 35 26
0 0 0 0 0 0 0 0 0 0 0 0 0 0 0 0 0 0 0 0 0 0 0 0 0 0 0 0 0 0 0 0 0 0 0 6 6 10 10 10 10 13 19 29 32 26 26 32 29
0 0 0 0 0 0 0 0 0 0 0 0 0 0 0 0 0 0 0 0 0 0 0 0 0 0 0 0 0 0 0 0 6 13 3 6 6 6 3 6 6 16 19 13 19 19 23 35 29
0 0 0 0 0 0 0 0 0 0 0 0 0 0 0 0 0 0 0 0 0 0 0 0 0 0 0 0 0 0 0 0 0 3 0 6 10 10 3 6 10 10 10 13 10 19 23 35 29
0 0 0 0 0 0 0 0 0 0 0 0 0 0 0 0 0 0 0 0 0 0 0 0 0 0 0 0 0 0 0 0 0 0 0 0 0 6 0 3 10 6 6 10 6 19 19 19 23
0 0 0 0 0 0 0 0 0 0 0 0 0 0 0 0 0 0 0 0 0 0 0 0 0 0 0 0 0 0 0 0 0 0 0 0 0 0 0 0 3 3 10 6 13 19 16 10 13
0 0 0 0 0 0 0 0 0 0 0 0 0 0 0 0 0 0 0 0 0 0 0 0 0 0 0 0 0 0 0 0 0 0 0 3 0 0 0 0 0 6 0 0 13 23 13 10 10
0 0 0 0 0 0 0 0 0 0 0 0 0 0 0 0 0 0 0 0 0 0 0 0 0 0 0 0 0 0 0 0 0 0 0 0 0 3 3 0 0 3 6 0 6 10 16 13 10
0 0 0 0 0 0 0 0 0 0 0 0 0 0 0 0 0 0 0 0 0 0 0 0 0 0 0 0 0 0 0 0 0 0 0 0 3 3 3 3 3 3 3 3 6 3 6 6 6
0 0 0 0 0 0 0 0 0 0 0 0 0 0 0 0 0 0 0 0 0 0 0 0 0 0 0 0 0 0 0 0 0 0 0 0 6 3 3 3 3 3 3 6 0 0 3 0 0
Height
5926 5925 5925 5925 5925 5925 5923 5923 5922 5921 5920 5919 5918 5917 5916 5916 5916 5917 5913 5911 5910 5909 5908 5908 5907 5907 5906 5906 5906 5906 5906 5906 5906 5906 5906 5906 5905 5905 5905 5906 5906 5906 5906 5906 5906 5906 5906 5905 5905
5927 5927 5927 5927 5926 5925 5924 5923 5922 5921 5920 5919 5918 5917 5916 5915 5914 5912 5911 5909 5909 5908 5907 5906 5906 5905 5905 5905 5905 5905 5905 5905 5904 5904 5904 5904 5904 5904 5904 5904 5904 5904 5904 5904 5904 5904 5904 5904 5904
5928 5928 5928 5927 5926 5926 5925 5923 5922 5921 5919 5918 5917 5916 5915 5914 5912 5911 5909 5908 5907 5906 5905 5904 5903 5903 5903 5903 5903 5902 5902 5902 5902 5902 5902 5902 5902 5902 5902 5902 5902 5902 5902 5902 5903 5903 5903 5903 5903
5929 5929 5929 5928 5926 5925 5924 5923 5922 5920 5919 5917 5916 5915 5913 5912 5910 5909 5907 5906 5905 5904 5903 5902 5901 5901 5900 5900 5899 5899 5899 5899 5899 5900 5900 5900 5900 5900 5900 5900 5900 5900 5900 5901 5901 5901 5901 5901 5901
5929 5929 5928 5927 5926 5925 5923 5922 5921 5919 5917 5916 5914 5913 5911 5910 5908 5906 5905 5904 5902 5901 5900 5898 5898 5897 5897 5896 5896 5895 5896 5896 5896 5896 5896 5897 5897 5897 5897 5898 5898 5898 5898 5898 5899 5899 5899 5900 5900
5929 5929 5928 5927 5926 5924 5922 5921 5919 5918 5916 5914 5912 5910 5908 5907 5905 5904 5902 5901 5899 5898 5896 5895 5894 5893 5893 5892 5892 5892 5891 5891 5892 5892 5892 5893 5893 5894 5894 5895 5895 5895 5895 5896 5896 5897 5897 5898 5898
5929 5928 5927 5926 5924 5923 5921 5919 5917 5915 5914 5912 5910 5908 5906 5904 5902 5900 5898 5897 5895 5894 5892 5891 5890 5889 5889 5888 5887 5887 5886 5887 5887 5887 5887 5888 5889 5890 5890 5891 5892 5892 5893 5893 5894 5894 5895 5896 5896
5927 5927 5925 5924 5923 5921 5919 5917 5915 5913 5911 5909 5907 5905 5903 5901 5898 5896 5894 5893 5891 5890 5888 5887 5885 5884 5883 5883 5882 5882 5882 5881 5881 5882 5882 5883 5883 5884 5886 5887 5888 5888 5889 5890 5891 5892 5893 5893 5894
5926 5926 5924 5922 5921 5919 5917 5915 5913 5910 5908 5906 5904 5902 5899 5897 5895 5893 5891 5889 5887 5885 5884 5882 5881 5879 5878 5877 5876 5876 5876 5876 5875 5876 5876 5877 5878 5879 5880 5881 5883 5884 5885 5886 5887 5888 5890 5890 5891
5924 5923 5922 5920 5919 5917 5914 5912 5910 5908 5905 5903 5901 5898 5895 5893 5891 5889 5886 5884 5882 5880 5878 5876 5875 5874 5872 5871 5870 5870 5869 5869 5869 5870 5871 5871 5872 5873 5875 5876 5877 5879 5880 5881 5883 5884 5886 5887 5888
5921 5921 5919 5917 5916 5914 5912 5909 5907 5904 5902 5900 5897 5895 5892 5889 5887 5884 5882 5879 5877 5874 5872 5870 5869 5867 5866 5865 5864 5863 5863 5863 5863 5863 5864 5865 5866 5867 5868 5870 5872 5873 5875 5876 5878 5880 5881 5883 5884
5919 5918 5916 5915 5913 5911 5909 5906 5904 5901 5899 5896 5893 5891 5888 5885 5882 5880 5877 5874 5871 5868 5866 5864 5862 5860 5859 5858 5857 5856 5856 5855 5855 5856 5857 5858 5859 5861 5862 5864 5865 5867 5869 5871 5873 5874 5876 5878 5880
5917 5915 5914 5912 5910 5908 5906 5904 5901 5898 5895 5893 5890 5887 5884 5881 5878 5875 5871 5868 5865 5863 5860 5857 5855 5853 5851 5850 5849 5848 5848 5848 5848 5848 5849 5850 5852 5854 5855 5857 5858 5860 5862 5864 5867 5869 5871 5873 5875
5914 5913 5911 5910 5908 5906 5903 5901 5898 5895 5892 5889 5886 5883 5880 5877 5873 5870 5866 5863 5860 5857 5854 5851 5848 5846 5844 5842 5841 5839 5839 5839 5839 5839 5840 5841 5843 5845 5847 5849 5851 5853 5856 5858 5861 5863 5865 5867 5869
5911 5910 5909 5907 5905 5903 5901 5898 5895 5892 5889 5886 5883 5879 5876 5872 5868 5865 5861 5858 5854 5851 5847 5844 5841 5839 5836 5834 5832 5831 5830 5830 5830 5830 5831 5832 5834 5836 5839 5841 5843 5846 5848 5851 5854 5856 5859 5861 5863
5909 5908 5907 5905 5903 5901 5900 5896 5893 5889 5886 5883 5880 5876 5872 5868 5865 5861 5857 5853 5849 5845 5842 5838 5835 5832 5829 5826 5824 5822 5821 5821 5821 5821 5822 5823 5825 5827 5829 5832 5835 5837 5840 5844 5847 5850 5852 5855 5857
5906 5906 5904 5903 5900 5898 5896 5893 5890 5887 5884 5880 5877 5873 5869 5865 5861 5857 5853 5849 5845 5841 5837 5833 5829 5825 5822 5819 5817 5815 5814 5813 5812 5813 5813 5814 5816 5818 5820 5823 5826 5829 5832 5835 5839 5843 5845 5848 5851
5904 5903 5902 5900 5898 5896 5893 5891 5888 5884 5881 5878 5874 5870 5867 5863 5858 5854 5850 5845 5841 5837 5832 5828 5824 5820 5816 5813 5810 5808 5807 5806 5805 5805 5805 5806 5807 5809 5811 5814 5817 5820 5823 5827 5830 5835 5838 5841 5844
5901 5901 5899 5897 5895 5893 5891 5888 5885 5882 5879 5875 5872 5868 5864 5860 5856 5851 5847 5842 5838 5833 5829 5824 5820 5815 5811 5807 5804 5802 5800 5799 5798 5798 5797 5798 5799 5800 5802 5805 5808 5811 5814 5818 5822 5826 5830 5833 5837
5898 5898 5896 5894 5892 5890 5888 5886 5883 5880 5877 5874 5870 5867 5863 5859 5854 5849 5845 5840 5835 5830 5826 5821 5816 5811 5807 5803 5799 5797 5794 5793 5792 5791 5790 5790 5791 5792 5794 5796 5799 5802 5805 5809 5813 5817 5821 5825 5829
5895 5895 5893 5892 5890 5888 5886 5884 5881 5878 5875 5872 5869 5865 5861 5857 5853 5848 5843 5838 5833 5828 5823 5818 5813 5808 5803 5799 5795 5792 5790 5788 5786 5785 5784 5784 5784 5785 5786 5788 5790 5793 5796 5800 5804 5808 5812 5817 5820
5892 5892 5891 5889 5888 5886 5885 5883 5880 5877 5874 5871 5868 5864 5860 5856 5852 5847 5842 5837 5832 5827 5822 5816 5811 5806 5801 5796 5792 5788 5786 5783 5781 5780 5779 5778 5778 5778 5779 5781 5782 5785 5787 5791 5795 5799 5803 5808 5812
5890 5889 5888 5887 5886 5885 5883 5881 5880 5876 5873 5871 5867 5863 5860 5856 5851 5846 5842 5837 5832 5826 5821 5816 5810 5805 5800 5795 5791 5787 5783 5780 5777 5776 5774 5773 5773 5773 5773 5774 5775 5777 5779 5782 5786 5790 5794 5799 5803
5888 5887 5887 5885 5885 5884 5882 5881 5879 5876 5873 5870 5867 5863 5859 5855 5851 5846 5841 5837 5831 5826 5821 5815 5810 5805 5799 5794 5790 5786 5782 5778 5775 5773 5771 5769 5768 5768 5768 5768 5769 5771 5772 5775 5778 5781 5785 5790 5795
5886 5886 5886 5885 5884 5883 5881 5879 5879 5875 5872 5869 5866 5863 5859 5855 5850 5846 5841 5836 5831 5826 5821 5816 5810 5805 5799 5794 5790 5785 5781 5777 5774 5771 5768 5766 5765 5763 5763 5763 5763 5764 5766 5768 5770 5774 5777 5782 5786
5884 5884 5885 5884 5883 5882 5880 5879 5878 5875 5872 5869 5866 5863 5859 5855 5851 5846 5841 5837 5832 5827 5821 5816 5811 5805 5800 5795 5790 5785 5781 5777 5773 5770 5767 5764 5762 5760 5759 5758 5759 5759 5760 5762 5764 5767 5770 5774 5778
5882 5882 5882 5882 5882 5881 5880 5879 5877 5874 5872 5869 5866 5862 5859 5855 5851 5847 5842 5837 5832 5827 5822 5817 5812 5806 5801 5796 5791 5786 5781 5777 5773 5769 5766 5763 5760 5758 5756 5755 5755 5755 5756 5757 5759 5761 5764 5768 5771
5881 5881 5881 5881 5881 5880 5880 5878 5877 5874 5871 5869 5866 5863 5859 5855 5851 5847 5843 5838 5833 5828 5823 5818 5813 5808 5802 5797 5792 5787 5782 5777 5773 5769 5766 5762 5759 5756 5754 5752 5752 5751 5751 5752 5754 5756 5758 5761 5765
5879 5880 5880 5880 5880 5880 5879 5880 5876 5874 5871 5869 5866 5863 5859 5856 5852 5848 5844 5839 5835 5830 5825 5820 5815 5809 5804 5799 5794 5789 5783 5778 5774 5769 5766 5762 5758 5755 5753 5750 5749 5748 5748 5749 5750 5752 5754 5756 5759
5877 5878 5879 5880 5879 5878 5878 5881 5875 5873 5871 5869 5866 5863 5860 5856 5853 5849 5845 5841 5836 5832 5827 5822 5817 5812 5806 5801 5796 5791 5785 5780 5775 5770 5766 5762 5758 5755 5751 5749 5747 5746 5745 5746 5747 5748 5750 5752 5754
Wind_Speed
9 9 9 9 9 8 7 5 4 4 4 4 3 3 4 4 4 4 4 4 4 4 4 5 5 5 6 6 6 7 8 8 9 10 11 11 11 11 10 10 9 9 9 8 7 7 7 7 6
8 8 8 7 8 8 6 5 5 5 4 4 4 4 4 5 5 5 6 7 7 7 6 7 7 8 8 8 8 9 9 10 10 10 11 11 11 11 11 11 10 9 9 8 8 7 6 6 6
6 7 7 7 7 6 6 5 5 5 6 5 6 6 6 7 7 7 8 9 9 9 8 8 9 10 11 11 11 11 12 12 11 11 12 12 12 12 12 12 11 10 9 9 8 8 7 6 6
5 6 6 7 6 5 5 5 6 7 7 7 8 8 8 9 10 10 10 10 10 11 11 11 11 12 13 13 13 13 14 14 14 13 13 13 13 13 13 13 12 11 10 10 9 9 8 7 6
4 5 6 6 6 6 6 7 8 8 9 9 10 10 11 12 12 12 12 12 12 13 14 14 14 14 15 15 16 16 16 16 16 16 15 15 15 14 14 14 13 12 11 11 10 10 9 8 7
4 5 6 6 6 7 8 9 11 10 11 12 12 13 14 15 15 16 15 16 16 15 16 16 16 16 17 17 19 19 19 19 18 17 17 17 17 17 16 16 15 14 13 12 11 11 10 9 8
6 6 7 7 7 9 11 12 12 12 14 14 15 16 17 18 18 19 18 19 18 18 19 19 20 20 20 20 20 20 21 21 21 21 19 19 19 19 19 18 17 16 14 14 13 12 12 11 10
7 8 9 10 10 12 13 14 14 15 16 16 17 18 19 19 20 20 20 20 20 21 21 21 21 22 23 23 23 23 23 23 23 23 22 21 21 21 21 20 19 18 17 16 15 14 13 12 12
9 9 10 11 12 13 15 16 16 17 17 18 19 20 20 20 20 20 21 21 22 22 24 24 24 25 25 26 26 27 26 26 26 25 24 23 23 22 23 23 22 21 20 19 18 16 15 14 14
10 10 12 13 14 15 16 17 18 18 18 19 20 20 20 21 21 21 22 23 24 25 26 26 26 27 28 29 30 29 29 29 28 27 27 27 26 25 25 24 25 24 22 21 20 19 17 16 16
11 12 13 14 15 16 17 18 19 20 19 20 20 20 20 21 21 22 23 24 25 26 27 28 28 29 30 31 32 32 32 32 32 31 30 30 28 28 28 27 26 26 25 23 23 22 20 19 17
12 13 14 16 16 17 18 19 20 20 20 20 20 21 21 22 22 23 24 25 26 27 28 29 30 31 32 33 34 34 35 35 35 35 35 33 32 31 30 30 29 28 28 26 24 24 22 21 20
13 14 15 16 17 17 19 20 20 20 20 20 20 21 22 23 24 24 25 25 26 27 27 29 30 31 32 33 34 35 36 37 38 38 38 37 36 34 34 31 30 30 29 27 25 26 25 24 23
14 15 15 16 17 18 19 19 19 19 20 21 21 22 23 23 24 25 25 26 26 27 27 28 29 29 30 31 32 34 35 36 38 39 39 39 38 38 36 36 34 33 32 30 28 27 26 25 25
14 15 15 16 17 18 19 18 18 19 19 20 21 22 22 23 24 24 25 25 26 26 26 27 27 27 28 29 30 31 33 35 36 37 38 39 40 39 38 38 37 36 34 32 31 31 28 28 27
14 15 15 16 17 17 18 17 18 19 19 20 21 22 22 22 23 24 24 24 24 24 24 25 25 26 26 27 27 28 29 30 33 35 37 37 39 39 40 39 39 37 36 34 33 32 30 30 29
14 15 15 16 17 17 16 17 17 18 19 20 20 21 21 22 23 23 23 22 23 23 23 24 24 23 23 24 24 24 25 26 28 31 33 35 37 38 39 39 40 39 38 37 36 35 33 32 31
14 15 15 17 16 16 16 16 17 17 18 18 19 20 21 22 22 22 22 22 22 22 23 23 23 22 22 22 22 22 22 23 25 26 29 31 34 35 37 38 39 40 39 39 37 37 36 35 34
14 14 15 16 15 15 14 15 15 16 16 17 18 19 20 21 21 22 22 22 22 22 22 22 22 22 22 21 20 20 20 21 22 24 27 29 31 33 35 36 37 38 38 39 39 38 37 37 36
13 13 14 14 13 13 12 13 13 14 15 16 17 18 19 20 21 21 21 21 22 22 22 22 22 21 21 20 19 19 19 19 20 21 23 26 28 30 32 35 36 37 38 39 39 40 40 39 38
12 12 13 12 11 10 11 11 11 12 14 15 16 17 18 19 19 20 21 21 22 22 22 22 21 21 20 19 18 18 17 17 17 18 19 21 24 27 29 31 34 37 38 39 40 41 41 41 40
12 11 10 10 9 9 9 9 11 12 13 14 15 16 17 19 19 20 21 22 23 22 22 22 22 21 20 19 17 16 15 15 15 15 16 17 19 21 24 27 30 33 35 38 40 41 42 42 41
10 9 8 7 7 7 7 8 10 11 12 14 15 16 17 18 19 20 21 22 23 23 22 22 22 21 20 19 18 16 15 13 12 12 13 14 15 18 20 23 26 29 31 34 37 39 41 41 42
9 7 6 5 5 5 6 7 9 10 11 13 14 16 17 18 19 20 21 22 22 23 22 22 22 22 21 20 19 17 16 14 13 11 11 11 12 15 17 19 22 24 27 30 33 36 39 40 40
7 5 4 3 3 4 5 6 7 9 11 12 14 15 17 18 20 20 21 21 22 22 23 22 23 23 22 21 20 19 17 15 14 12 11 10 11 12 13 16 18 21 24 26 28 32 35 37 37
5 3 2 1 2 3 4 6 7 9 10 12 14 15 17 18 19 20 20 21 22 22 23 23 23 23 23 22 21 20 19 17 15 14 12 10 9 9 10 12 15 17 20 22 24 27 30 33 35
4 3 2 1 1 2 4 6 7 9 10 12 13 15 17 18 19 20 21 21 22 22 23 23 23 23 23 23 22 21 20 18 17 15 14 12 10 9 9 9 11 13 16 19 21 24 27 29 32
4 3 3 2 1 2 3 5 7 8 10 11 13 15 16 17 18 19 21 21 22 23 23 23 24 24 24 24 23 23 22 21 19 17 16 14 13 11 9 9 9 11 13 15 17 20 23 26 29
5 4 4 3 2 2 3 4 6 8 9 11 12 14 15 17 18 19 20 21 22 23 24 23 24 24 24 24 24 24 23 22 21 19 17 16 15 12 10 9 8 8 10 12 14 16 18 21 24
6 6 5 4 2 2 3 4 5 7 9 10 12 13 15 16 17 18 19 21 22 23 23 24 24 24 25 25 25 25 25 24 22 21 19 18 17 15 13 10 8 6 6 8 10 13 15 17 20
Wind_Direction
43 49 53 52 52 48 41 36 32 27 28 23 13 2 350 333 329 313 307 298 288 275 260 245 234 229 228 228 227 224 225 223 221 220 218 216 215 214 215 217 220 224 227 233 237 243 249 257 266
40 45 44 45 44 37 33 30 19 5 3 355 343 334 325 315 311 303 296 296 289 278 269 257 244 240 238 236 237 235 232 231 230 229 226 223 223 223 223 223 224 225 227 231 235 240 244 249 256
35 38 37 27 23 19 13 9 355 347 343 333 325 321 317 311 307 301 298 296 291 279 271 263 253 246 242 240 241 240 236 235 235 235 233 231 230 229 228 228 227 227 227 230 232 236 240 242 248
26 27 21 10 9 7 358 346 337 330 328 323 318 313 309 308 304 301 299 298 292 281 274 271 268 263 252 246 244 243 240 238 238 237 237 236 235 234 233 232 230 230 230 231 232 233 235 236 240
7 7 6 358 359 351 338 330 326 324 321 319 316 311 307 304 300 298 296 294 288 282 278 273 270 268 261 255 253 247 244 243 241 241 240 240 239 238 237 235 233 232 231 231 231 231 231 233 235
335 344 345 339 339 333 329 324 318 316 318 316 311 307 305 303 300 296 293 290 286 281 277 273 269 266 264 261 259 256 251 248 246 246 245 242 242 242 240 238 236 235 233 231 230 230 230 233 234
317 324 327 326 325 325 324 321 315 312 313 311 309 305 304 302 299 296 293 289 285 281 278 273 270 269 266 264 265 263 259 256 252 248 247 246 244 244 242 240 239 238 235 233 234 232 232 233 234
307 316 318 317 317 318 319 319 318 313 311 309 308 306 304 303 300 298 295 291 286 281 279 278 272 269 267 265 265 264 262 260 258 255 252 250 247 245 245 242 240 240 238 236 236 235 233 234 235
302 308 312 313 312 314 317 318 318 316 310 309 308 307 305 303 301 298 295 292 288 284 282 278 272 271 270 269 268 266 264 262 261 259 255 255 255 252 249 245 241 241 240 239 236 235 235 235 235
298 303 306 308 309 312 314 315 316 315 312 309 308 308 306 304 301 298 294 291 288 285 282 279 275 273 271 270 270 269 267 265 264 261 258 258 256 254 253 248 243 241 241 240 237 235 235 235 235
292 297 302 306 309 312 313 315 315 315 312 310 310 309 308 306 304 301 297 293 290 287 284 280 277 275 272 271 270 268 267 264 263 262 261 261 258 255 253 251 247 244 242 239 238 235 234 235 235
288 294 299 304 308 312 314 315 316 315 312 312 312 312 311 309 307 304 301 298 294 291 288 284 280 278 276 274 271 270 267 266 265 264 262 261 259 256 255 253 251 247 243 240 237 235 234 235 235
286 292 298 304 308 312 314 315 315 315 315 313 312 313 312 310 308 306 303 300 297 294 291 287 283 281 278 277 274 272 268 266 265 264 262 261 259 256 254 254 252 249 245 243 241 237 235 236 235
285 291 298 304 309 312 314 316 316 317 318 317 316 316 315 313 311 308 305 303 301 299 296 293 290 286 282 279 276 273 269 266 265 263 261 259 258 257 255 254 253 251 247 243 242 239 236 235 234
284 290 298 304 308 312 315 318 319 320 322 321 320 320 320 319 317 314 311 309 307 305 303 299 295 291 287 283 280 276 271 266 264 262 260 259 257 256 254 252 251 250 248 244 241 238 237 236 235
283 292 299 304 308 312 317 318 320 322 323 324 324 325 326 325 323 322 319 316 314 312 309 306 303 298 293 288 284 279 273 268 264 261 260 258 256 254 252 251 250 248 246 244 241 238 237 237 237
283 291 297 302 307 312 315 317 321 323 325 327 328 330 331 330 329 329 327 324 320 318 316 314 311 306 301 295 289 283 276 271 266 262 259 257 255 253 252 251 250 247 244 242 240 239 236 236 237
279 288 295 301 307 311 314 318 322 325 328 330 333 334 335 335 334 333 332 329 327 324 322 319 316 312 308 303 296 288 281 274 269 265 261 257 255 253 252 250 249 247 244 243 241 239 237 236 237
278 287 294 300 306 310 315 320 325 329 333 336 338 339 339 340 340 340 338 336 334 331 329 327 323 319 316 310 303 296 288 280 273 267 262 258 256 253 251 249 248 246 245 244 242 238 237 237 236
278 288 295 299 305 310 317 325 331 336 339 341 342 344 346 345 345 346 346 344 342 339 337 335 332 328 324 318 312 304 296 288 279 271 266 261 257 253 251 249 247 246 245 243 242 240 238 237 236
279 290 294 299 306 315 324 332 339 344 345 345 347 349 350 351 351 351 352 352 351 349 346 345 342 339 334 328 321 313 306 297 286 278 271 264 259 255 251 249 247 246 245 242 240 239 238 237 236
281 288 292 299 310 321 332 338 344 348 350 352 353 354 355 355 356 357 358 358 357 356 355 354 353 351 347 344 339 331 323 312 299 288 279 269 262 258 253 250 248 246 245 243 240 238 237 236 236
279 286 292 302 314 326 339 346 350 354 356 357 359 359 360 0 0 0 0 1 1 1 1 1 0 359 357 355 352 347 340 332 320 304 291 278 268 261 257 253 249 247 244 243 240 237 235 235 235
274 283 294 308 322 335 345 350 354 359 1 2 3 4 5 5 4 3 2 3 3 4 6 6 6 6 4 3 1 358 354 349 339 325 308 292 279 269 263 256 251 248 245 243 240 237 235 234 234
268 279 299 325 339 346 353 360 3 4 4 5 6 7 7 8 7 6 5 6 6 8 8 9 9 11 11 10 8 6 3 359 354 346 332 314 296 282 270 260 253 249 245 242 239 237 235 234 234
251 256 269 313 346 0 9 10 8 8 9 10 11 10 11 11 10 10 10 10 10 11 12 12 13 14 15 14 12 11 9 6 2 358 351 340 324 304 286 269 257 250 246 243 239 237 235 235 234
227 213 192 150 46 27 17 15 15 12 14 14 14 13 13 13 13 14 14 14 13 13 14 15 16 16 16 16 15 14 12 10 7 5 0 353 341 326 307 286 266 256 249 244 240 237 235 235 235
212 192 171 144 101 50 24 16 13 15 14 14 13 13 14 15 16 17 17 16 17 17 17 17 18 19 19 19 18 17 16 14 12 9 5 0 354 343 327 305 282 264 254 246 242 239 236 235 235
197 178 159 141 118 66 27 19 17 15 15 14 14 15 16 18 19 19 18 18 19 20 20 20 21 22 22 22 21 20 18 15 13 12 10 8 4 358 348 332 310 281 260 248 243 238 235 235 235
182 168 159 148 122 69 39 31 23 20 19 19 19 19 19 20 20 19 19 20 21 21 22 23 24 24 24 23 23 23 21 20 18 18 17 14 9 5 0 350 332 305 277 257 246 240 237 237 237